Wind_Gust
14 14 15 15 16 10 9 8 9 10 11 10 11 9 9 10 10 8 7 6 7 8 7 7 6 5 5 5 6 5 4 4 2 4 3 2 2 3 4 4 6 2 4 5 5 6 9 9 7 5 3 10 7 7 6 5 5 7 8 9 11 9 11 7 8 7 4 2 4 6 4 8 7 5 6 4 3 3 4 3 2 3 3 3 2
11 11 9 12 11 12 11 10 10 11 13 11 12 12 12 11 9 9 8 6 6 8 7 6 5 5 5 6 4 4 3 2 1 2 3 2 2 4 4 4 5 3 3 5 5 6 7 10 7 5 5 9 6 6 6 8 8 10 10 12 13 12 7 9 4 8 10 2 3 4 5 4 6 5 9 8 6 3 4 3 3 3 4 4 4
10 13 14 15 15 16 15 14 14 13 14 12 11 12 12 11 11 12 9 7 5 9 6 6 5 4 5 5 4 3 3 3 2 3 3 3 2 1 2 2 4 4 5 3 3 4 8 7 5 4 4 8 6 5 5 6 6 8 7 8 13 12 8 6 9 5 9 6 4 6 6 6 8 6 4 3 3 4 5 4 3 2 3 3 4
10 12 13 13 13 15 12 12 15 14 14 12 12 9 11 11 10 11 10 9 10 6 8 8 6 5 6 5 5 6 4 3 3 2 4 5 4 3 2 3 3 3 4 3 4 6 6 7 3 4 5 8 4 6 5 6 7 7 6 3 7 9 6 4 4 10 6 8 3 8 7 7 10 2 7 4 5 5 4 2 2 4 3 2 3
15 14 16 19 19 20 15 13 11 12 12 11 11 10 10 9 7 9 10 9 9 9 6 6 6 6 8 6 6 6 6 6 5 3 2 4 6 5 4 3 3 3 2 3 6 5 5 6 3 3 5 8 4 5 5 7 5 8 8 6 7 6 6 6 6 6 11 8 5 3 3 6 4 3 6 9 2 1 2 2 3 4 2 1 1
14 14 16 20 20 21 19 16 15 10 11 13 11 8 10 11 11 10 11 11 9 12 12 8 8 7 6 6 7 7 6 7 7 8 6 4 5 5 5 4 4 3 3 4 6 4 5 4 3 3 6 7 4 3 5 6 5 7 7 7 7 7 7 5 6 7 10 7 7 5 2 5 3 3 2 7 10 6 7 6 7 6 4 7 7
13 16 15 16 16 15 15 19 16 13 9 12 16 15 12 11 12 13 12 11 11 11 8 8 6 8 7 6 7 7 7 7 8 7 6 5 6 6 5 4 4 3 2 3 3 3 4 4 4 4 5 7 6 5 4 4 7 5 5 7 6 9 8 5 6 9 8 8 5 4 5 3 3 5 3 3 7 6 9 4 8 7 9 8 7
11 11 15 15 18 20 18 18 21 22 17 15 14 15 14 15 15 14 12 11 11 11 11 10 8 7 9 9 7 6 7 7 6 6 7 7 7 5 5 6 5 4 3 4 3 2 3 3 2 2 4 5 7 6 7 6 4 6 4 6 7 10 9 7 8 8 8 6 4 3 3 3 6 3 3 6 7 7 8 5 8 4 6 7 4
13 10 6 13 15 14 13 13 16 18 18 14 13 13 14 13 13 13 13 12 13 11 7 7 8 7 7 9 8 7 9 10 10 10 9 7 6 8 8 7 7 6 4 4 4 5 2 2 2 2 2 6 6 7 6 7 10 8 2 4 7 10 8 8 8 9 8 8 6 3 6 8 6 3 6 7 4 6 4 3 5 2 2 4 3
14 9 7 7 7 6 8 8 11 13 15 13 12 12 11 9 7 8 10 10 9 7 7 8 9 11 10 7 7 8 9 9 9 12 10 12 10 7 6 6 6 6 6 6 4 3 4 3 2 5 6 6 7 8 8 6 5 8 11 9 9 8 7 8 7 8 8 9 4 6 8 5 2 2 3 2 1 1 7 8 5 4 3 4 2
10 10 8 7 7 7 8 8 8 10 9 9 7 9 10 10 11 10 8 8 9 8 9 10 10 11 12 12 10 9 9 9 10 10 10 9 9 8 9 8 5 6 7 8 8 7 5 3 4 7 8 9 9 9 10 10 11 11 8 6 5 11 11 7 5 5 7 6 3 6 7 7 3 2 5 4 3 4 5 6 6 6 5 3 5
10 8 9 8 7 7 6 7 8 7 7 6 5 6 8 9 10 10 9 10 10 10 12 12 12 10 10 11 13 13 12 8 10 10 9 8 6 8 7 8 8 8 7 8 7 6 7 6 4 4 5 6 8 10 10 11 12 12 13 12 10 8 4 10 9 5 6 9 6 4 8 6 4 4 3 3 5 7 4 5 2 6 3 3 4
12 10 8 9 8 5 6 6 6 6 6 6 6 6 7 8 8 9 10 9 7 10 12 10 10 8 10 11 11 10 9 7 10 11 10 8 7 6 8 8 9 9 8 8 7 7 7 8 6 3 5 8 8 8 10 11 11 13 13 13 13 12 11 8 4 8 11 10 11 5 6 7 6 2 4 4 4 5 1 3 2 2 3 2 4
15 12 11 11 10 8 7 7 4 7 9 9 8 6 6 9 8 7 7 6 8 7 5 8 8 9 11 12 12 10 9 7 9 9 5 4 6 4 5 6 6 7 8 8 8 8 9 11 10 8 5 5 6 9 10 11 9 10 11 10 9 10 11 12 12 10 6 11 12 9 3 6 6 4 3 6 4 2 2 2 2 3 2 3 2
19 17 15 12 9 11 12 9 10 9 14 15 17 15 15 13 10 6 7 8 7 5 7 6 9 8 9 10 9 9 9 6 8 7 6 5 5 3 4 3 4 5 7 8 9 10 10 11 10 11 9 8 8 10 12 11 11 11 11 9 8 6 7 8 7 4 7 6 7 8 8 5 6 5 5 3 4 5 3 2 5 2 2 2 7
21 20 21 20 18 15 10 9 12 11 9 8 6 4 8 8 7 8 7 6 13 14 9 11 12 8 8 12 8 6 4 3 5 6 7 6 5 5 5 4 5 4 5 4 5 8 9 11 11 10 9 8 8 10 11 14 14 13 12 7 7 7 8 5 5 6 8 8 9 9 7 6 6 6 5 5 6 5 7 7 8 8 5 6 2
21 20 21 20 20 19 18 17 17 15 14 12 8 5 3 4 3 4 4 4 7 6 11 11 4 12 11 14 11 8 9 4 5 6 6 8 5 6 6 5 4 5 4 2 6 7 8 9 10 12 10 9 10 12 12 13 13 13 12 10 7 8 8 6 9 12 14 15 15 13 12 11 10 10 10 7 6 4 6 8 4 2 7 2 4
17 18 20 18 17 18 17 17 17 17 17 16 14 13 9 3 2 3 6 7 7 8 7 5 3 9 10 10 12 10 9 7 8 8 9 11 9 9 9 9 6 6 3 2 3 6 8 11 11 13 12 11 13 14 14 14 13 13 13 13 10 9 4 2 6 9 10 13 13 13 12 10 9 9 9 8 6 4 6 2 3 9 5 4 5
17 17 16 16 15 14 14 15 16 15 16 13 13 14 14 11 7 5 4 3 5 2 2 3 4 4 7 7 8 10 9 8 11 10 12 11 11 8 11 10 10 6 8 6 2 4 4 7 12 14 13 14 17 16 15 13 14 14 14 14 12 9 9 6 8 8 7 9 9 9 12 10 9 8 8 9 8 7 6 6 7 6 6 4 3
12 11 12 13 13 16 14 14 14 15 14 12 12 12 9 11 13 11 9 6 4 3 3 6 7 8 6 6 8 8 7 6 11 12 13 14 13 10 10 13 12 10 8 10 10 4 4 5 6 9 13 15 17 17 15 13 14 12 12 14 14 12 9 7 5 9 8 11 8 10 10 8 10 9 10 10 10 8 8 6 4 8 8 7 4
12 12 12 13 14 15 15 15 15 13 11 9 8 12 13 13 12 12 11 10 8 9 7 6 6 7 5 5 6 6 6 6 8 12 12 12 11 12 12 13 13 14 12 10 13 15 11 9 6 6 11 15 16 16 14 13 12 14 12 14 12 12 11 9 6 8 12 11 10 10 10 10 10 10 10 11 11 9 9 7 6 5 9 8 4
14 14 15 15 15 16 16 16 15 14 14 15 15 15 12 11 11 11 11 12 14 13 8 5 4 8 5 4 5 5 3 4 4 10 12 12 12 14 13 12 15 15 12 11 10 11 14 13 13 11 12 13 14 13 13 13 13 12 11 9 12 16 14 9 10 11 12 12 12 10 10 11 11 10 10 10 8 7 7 6 6 6 6 5 6
12 14 16 17 16 16 16 17 17 16 17 17 16 16 14 15 14 14 15 14 13 14 14 15 12 10 10 8 5 5 4 4 8 7 8 11 11 13 14 11 12 14 18 17 16 15 10 10 8 11 13 15 15 16 15 16 12 12 14 15 15 14 12 11 11 13 12 11 12 11 9 9 11 9 9 9 5 5 7 5 5 5 4 3 1
14 16 16 16 17 17 17 18 18 17 18 17 16 17 18 16 15 16 14 15 15 15 16 16 15 15 14 15 13 10 6 4 4 6 5 7 8 12 16 17 18 16 15 17 16 12 13 12 12 13 13 15 16 16 16 13 15 15 15 15 15 12 12 11 11 12 12 12 12 10 9 6 9 8 6 6 6 6 6 3 4 3 2 4 4
15 14 14 14 15 14 15 16 16 16 15 15 18 18 15 16 17 16 14 14 14 13 13 13 13 13 13 13 13 13 11 2 5 7 9 7 7 9 13 14 15 17 17 7 7 11 9 12 14 15 13 13 15 14 11 13 17 14 15 15 12 11 12 13 13 13 13 11 11 10 8 8 9 7 7 5 3 1 2 3 3 3 3 2 3
15 14 12 12 11 11 14 14 13 15 15 14 13 13 13 14 13 12 12 14 12 12 12 12 12 12 13 14 15 13 7 5 5 6 7 8 7 10 12 12 10 9 10 7 10 11 11 11 12 12 14 15 16 12 12 13 12 15 14 12 10 12 11 13 11 13 12 12 12 12 11 9 7 6 3 3 5 3 2 2 3 5 5 6 8
14 14 15 14 13 13 11 9 9 11 11 11 10 10 11 11 12 13 13 13 12 10 9 9 12 12 10 11 13 15 16 8 7 9 9 9 16 13 9 11 11 10 12 9 9 12 15 13 15 14 9 7 9 9 11 10 12 10 8 9 10 11 10 11 13 14 12 12 10 10 8 7 5 6 4 4 4 3 2 1 3 3 4 3 3
10 9 10 10 11 13 14 13 16 13 12 10 11 11 9 7 8 8 8 9 10 13 11 10 8 10 13 12 12 14 16 13 11 11 6 6 10 11 12 12 13 13 11 10 10 9 10 7 10 12 12 12 13 9 8 7 7 9 9 9 10 10 10 10 9 10 8 9 10 9 7 7 7 5 3 3 4 3 2 2 2 4 4 4 8
6 6 7 8 10 9 10 10 10 11 12 13 11 6 9 10 8 9 4 1 2 6 9 11 9 5 7 11 11 13 12 15 16 9 13 13 19 19 15 15 18 13 19 16 16 12 12 12 10 11 12 14 10 9 12 11 8 6 9 10 11 12 11 10 12 11 11 12 12 11 10 6 4 2 3 3 3 3 2 3 5 3 6 2 3
6 6 5 6 7 9 9 8 7 8 8 8 11 14 8 6 6 7 11 12 13 9 6 11 9 10 11 12 9 11 16 18 12 10 12 16 18 18 16 19 19 16 19 29 24 21 18 16 15 12 9 3 7 10 12 11 11 10 7 6 10 11 9 9 11 11 9 11 10 10 9 7 6 5 5 4 2 4 5 4 4 3 3 4 6
5 6 6 7 6 6 7 7 8 8 7 8 8 7 14 18 10 8 8 12 12 13 13 10 10 9 8 12 15 12 15 18 20 15 13 16 16 17 19 19 19 21 18 12 10 15 14 16 15 14 15 14 14 9 10 12 12 12 11 10 10 12 10 10 10 9 10 10 7 8 9 9 9 7 6 6 4 3 6 4 3 3 2 2 4
5 5 5 5 6 6 5 5 7 8 10 8 7 8 9 10 19 17 14 11 17 15 12 9 9 13 10 8 9 15 15 13 15 14 12 13 13 14 15 16 16 19 16 11 14 13 15 17 15 14 14 17 17 15 15 14 14 13 13 12 10 7 10 9 9 11 10 10 10 9 8 8 8 7 4 2 3 2 2 4 4 3 4 4 6
5 5 4 4 5 6 7 8 7 8 8 9 10 9 9 10 12 20 26 17 11 10 11 9 10 14 16 16 13 8 11 15 17 16 14 16 15 13 13 17 19 20 16 10 12 13 12 15 19 18 19 20 19 18 15 13 11 9 10 13 12 9 6 5 7 9 9 10 10 9 5 4 4 6 5 3 2 2 2 1 1 2 2 5 8
3 3 4 3 5 8 8 8 8 8 8 7 8 9 8 9 10 10 15 23 29 19 14 16 16 14 13 13 16 20 18 15 14 13 14 13 13 11 10 10 11 18 20 21 16 16 15 14 16 20 18 12 12 12 10 9 9 12 11 10 10 9 8 8 9 9 9 8 8 6 5 5 6 6 4 4 3 4 2 1 1 3 6 6 7
5 5 5 5 6 7 5 7 7 6 7 8 8 8 9 8 6 8 10 13 15 18 21 22 18 17 19 12 12 15 16 17 15 13 11 11 12 14 14 15 11 9 11 6 10 12 14 16 14 7 8 10 10 11 12 10 10 9 10 10 9 9 9 9 10 10 10 9 9 7 7 7 5 6 9 7 5 3 1 2 3 3 5 9 8
6 6 4 4 4 4 4 6 7 7 8 8 7 8 8 9 10 9 9 9 10 14 17 16 17 14 18 10 8 10 12 13 14 14 12 9 17 19 14 12 13 14 14 11 10 9 7 8 9 10 10 8 10 12 14 15 14 13 12 14 13 13 12 12 11 10 6 9 9 9 9 8 9 9 8 6 5 3 2 2 5 6 6 7 8
4 4 3 3 2 3 5 4 5 6 5 6 7 8 8 8 8 9 9 10 11 13 13 15 16 19 14 7 10 10 11 10 10 12 14 11 7 7 8 14 14 13 13 10 8 8 10 8 5 2 6 11 14 13 12 12 13 12 11 13 14 14 12 13 12 12 12 10 8 8 7 9 8 7 9 6 1 1 2 4 6 7 7 7 6
1 2 2 1 2 3 3 4 4 4 5 5 6 7 9 11 11 10 10 12 12 13 13 14 9 10 14 17 13 8 12 8 10 10 11 11 15 9 9 6 5 14 14 10 8 10 10 9 10 12 10 8 6 7 9 9 11 13 13 11 12 11 12 14 10 10 9 11 10 9 9 8 8 7 7 7 3 2 3 5 4 7 8 9 5
2 2 2 2 1 2 2 2 3 5 6 6 6 8 9 9 10 11 11 11 12 12 12 11 11 10 11 13 14 11 10 10 10 8 7 6 7 10 8 7 7 7 4 3 4 4 6 9 8 8 8 7 8 8 8 11 11 12 13 14 13 13 14 11 11 9 10 10 8 7 7 6 5 5 5 6 2 2 3 5 5 6 7 9 9
4 3 3 3 6 5 6 2 3 7 6 8 10 9 9 11 14 14 11 11 12 12 11 12 12 12 13 12 13 13 9 8 5 8 6 5 5 6 5 5 2 5 5 5 4 5 9 9 10 11 9 8 7 6 5 11 12 13 14 15 15 13 11 10 11 10 10 8 10 7 8 6 4 4 3 4 2 1 2 5 7 7 6 7 9
2 1 3 4 6 6 3 4 6 7 6 8 9 10 11 11 12 10 10 10 11 11 11 11 11 12 11 15 15 12 7 6 5 5 6 5 7 5 4 3 3 7 4 4 5 5 7 8 8 11 11 11 13 13 11 9 11 12 12 12 13 13 10 8 9 9 9 8 9 8 7 7 5 8 5 2 3 3 2 4 6 7 8 7 8
1 5 4 5 4 4 3 3 4 5 6 7 12 11 10 10 9 9 9 9 9 10 11 11 11 12 12 16 14 12 7 6 4 8 8 8 9 8 6 5 4 4 4 5 6 3 5 8 9 10 12 13 14 14 16 15 14 16 15 13 13 12 11 9 8 8 9 9 6 8 5 5 5 6 4 6 3 3 3 5 6 8 7 8 7
2 6 4 5 4 4 3 2 3 6 6 8 10 6 6 7 8 9 9 9 9 9 9 11 11 12 13 13 15 12 11 9 7 9 8 8 9 9 8 7 6 6 6 5 8 8 11 11 10 11 11 9 8 11 14 15 15 15 14 14 13 12 11 8 8 7 7 8 8 6 6 6 6 5 4 4 2 4 3 4 7 7 8 7 8
2 5 2 2 3 4 2 3 4 5 6 5 5 7 7 7 8 8 9 9 10 9 10 10 10 11 11 13 13 13 12 11 12 12 12 11 11 10 8 6 7 7 9 10 10 10 12 14 13 14 13 13 12 13 14 12 12 14 15 15 12 11 10 8 8 7 8 9 7 7 7 6 4 4 5 5 4 5 5 4 5 7 8 8 9
2 2 2 3 1 3 4 2 3 6 6 5 4 4 6 7 8 9 9 9 9 9 10 10 11 11 12 13 13 12 12 12 12 13 14 12 11 9 7 9 10 12 12 13 12 12 11 13 15 16 17 14 14 15 15 14 13 12 10 11 13 11 8 7 5 4 5 8 7 7 5 5 5 4 3 1 2 3 3 4 5 6 9 8 8
2 3 2 2 2 3 5 4 5 7 7 5 5 7 7 7 7 8 8 9 9 9 10 10 10 11 11 11 12 12 12 12 13 13 12 13 11 10 9 10 14 16 16 15 14 14 13 13 15 17 17 16 15 14 13 13 14 14 12 11 11 10 7 6 5 6 6 6 7 6 5 6 4 3 4 2 1 2 2 6 4 5 7 9 9
3 3 3 4 3 3 4 5 6 7 6 5 5 6 4 6 6 6 7 9 9 9 10 10 10 11 11 11 12 12 12 12 12 12 12 12 12 11 10 12 15 17 17 16 14 15 16 17 17 17 16 15 14 14 13 12 11 11 12 11 11 10 7 6 6 5 4 4 5 5 4 5 4 4 6 5 4 3 3 4 4 6 7 7 8
5 6 6 4 4 4 5 6 7 6 6 6 5 3 3 4 5 5 6 7 9 8 8 9 9 9 10 11 11 11 10 11 11 11 12 13 12 12 12 14 16 15 15 16 16 16 16 16 16 16 15 14 14 14 12 12 12 11 11 11 10 9 9 7 6 5 4 3 3 3 4 5 4 4 3 3 3 4 4 5 5 6 8 9 7
3 6 6 5 6 7 7 8 8 8 9 9 8 6 2 1 2 2 4 5 6 6 7 8 8 9 10 10 9 10 10 10 11 12 12 11 11 11 13 14 14 15 16 16 15 15 16 16 15 15 15 14 13 12 12 11 12 11 11 11 11 10 8 5 4 4 4 3 4 4 5 5 5 4 3 4 4 4 4 4 5 7 9 8 8
4 3 2 2 3 3 2 4 8 8 9 9 9 8 5 4 4 3 5 5 6 6 7 6 7 7 7 8 9 9 9 9 9 9 9 9 10 10 12 13 14 14 15 14 14 14 14 14 15 15 14 13 13 11 10 10 11 10 8 9 8 8 7 7 5 4 3 1 2 4 5 5 4 3 4 4 4 5 5 5 5 8 7 9 10
3 3 3 1 1 1 3 7 9 9 9 9 9 8 7 6 3 2 6 6 6 5 5 6 6 6 7 6 6 8 8 8 8 8 8 9 9 10 11 13 13 13 13 13 13 13 12 12 12 13 12 12 12 10 10 10 10 10 10 10 9 7 7 5 3 4 3 3 2 3 5 4 3 4 4 4 4 5 8 7 6 5 6 7 9
Wind_Speed
6 5 6 6 7 6 5 5 6 6 7 7 7 6 5 6 6 5 5 4 4 4 4 4 4 4 4 4 4 4 3 2 1 1 1 1 1 2 3 3 4 2 2 4 3 4 5 5 4 3 2 6 5 4 3 2 3 4 4 5 6 6 5 3 4 3 1 1 1 2 3 5 3 3 4 3 2 2 3 1 1 1 1 2 1
5 5 5 7 8 8 7 6 6 7 8 7 7 6 6 6 5 5 5 4 4 4 4 4 4 4 4 4 4 2 2 1 1 1 1 1 2 2 2 3 3 2 2 4 3 3 4 5 4 4 3 5 4 4 3 3 3 5 6 6 7 7 4 4 2 3 5 0 1 2 2 2 3 3 5 5 4 2 3 2 1 2 3 2 3
5 6 7 8 9 9 10 9 8 8 9 7 6 6 5 5 6 7 5 4 3 4 4 4 4 3 3 3 3 2 2 2 1 2 2 1 1 1 1 2 3 3 3 2 2 2 5 4 3 3 3 5 3 2 2 4 3 4 5 5 6 7 5 3 4 2 5 2 1 2 3 3 5 3 3 2 2 2 3 2 2 1 2 1 2
6 5 5 6 8 9 8 8 10 9 9 7 8 6 6 5 5 6 5 5 6 4 4 5 4 3 4 3 3 4 3 2 2 1 2 3 2 2 1 1 1 2 3 3 3 4 4 4 2 3 3 5 3 3 3 3 4 4 4 2 4 5 4 3 3 5 3 4 1 3 3 3 4 0 2 1 2 2 2 1 1 2 1 1 1
7 7 9 10 10 11 9 8 7 8 8 7 7 6 5 5 4 5 5 5 5 5 4 3 4 4 4 4 3 4 4 4 3 2 1 2 3 3 3 1 1 1 2 2 4 3 3 4 3 2 4 5 3 3 3 4 2 4 4 4 4 4 3 4 4 4 6 5 2 0 1 2 0 0 3 4 1 1 1 0 1 2 1 1 0
5 7 8 10 8 11 10 10 9 7 7 8 7 5 6 7 6 6 6 7 6 7 7 5 5 4 4 4 3 3 3 3 4 4 3 2 3 3 3 3 2 2 2 3 4 3 3 3 2 3 4 4 2 2 3 4 3 4 4 3 3 3 4 3 3 4 5 4 4 2 1 2 1 1 1 3 5 3 3 3 4 4 2 4 4
7 10 8 9 9 9 9 10 8 8 5 7 8 9 7 6 7 8 7 7 7 6 4 5 4 5 4 4 4 4 3 3 4 4 3 3 4 4 3 3 2 2 1 2 2 3 3 3 3 3 4 4 3 3 3 3 4 4 3 4 3 5 4 3 4 5 5 4 3 2 3 2 1 2 2 1 3 3 4 3 5 3 4 4 4
6 7 9 9 11 12 11 9 10 11 8 8 9 9 8 7 8 8 6 6 6 6 6 6 4 4 4 4 4 4 4 4 4 4 4 4 4 3 4 4 3 2 2 2 1 1 2 2 2 2 3 3 4 4 4 3 3 4 3 3 4 6 5 4 4 5 5 3 2 1 2 1 3 1 1 3 4 4 4 3 4 2 4 4 3
3 4 4 8 9 8 9 8 10 11 11 9 8 9 9 9 8 8 8 7 7 7 5 4 4 4 4 4 4 4 6 6 6 6 6 4 4 4 4 4 4 4 2 2 1 2 1 1 2 2 1 4 5 6 5 5 6 5 1 3 4 6 5 5 5 6 5 5 4 2 3 4 2 2 3 3 3 3 1 2 3 1 1 3 1
7 4 3 1 3 4 5 5 7 8 9 8 8 7 7 6 5 4 5 6 5 4 5 4 5 5 5 4 4 5 5 5 7 11 9 7 6 4 3 3 3 4 3 3 2 1 2 1 0 4 4 5 6 7 7 5 3 5 7 6 6 5 5 5 4 4 5 5 3 4 5 3 2 2 2 1 0 1 4 4 3 0 1 1 0
5 5 5 4 4 4 4 3 4 6 6 6 5 5 6 6 6 5 4 4 5 5 5 5 5 5 7 7 6 5 5 5 9 9 9 8 6 5 5 5 3 3 4 4 4 4 2 1 2 4 4 5 4 7 8 8 8 8 7 5 4 7 6 4 3 3 3 3 2 4 5 4 2 1 3 2 2 3 3 3 4 3 2 1 0
5 3 3 4 4 4 3 3 4 4 4 4 4 4 4 4 5 5 5 5 4 4 6 6 6 6 5 6 7 7 6 7 9 8 7 7 6 5 5 5 5 5 5 5 4 4 3 3 2 2 2 3 4 6 7 9 10 10 10 9 8 7 4 5 5 3 3 5 4 3 5 4 3 3 2 2 3 4 2 3 2 3 2 1 1
6 6 5 5 5 3 2 2 2 3 3 4 3 3 4 4 4 5 7 5 3 4 4 4 5 4 5 6 6 6 5 7 9 8 7 6 6 3 4 4 5 5 5 5 5 4 4 5 4 2 3 5 4 4 6 7 9 11 11 11 11 10 9 8 4 4 6 6 6 3 3 4 4 1 2 2 2 3 1 2 1 1 1 1 1
9 8 7 6 6 5 4 4 3 4 5 5 4 2 2 1 1 2 2 2 3 2 2 5 5 6 7 7 7 6 6 6 8 6 3 3 3 2 2 2 3 4 5 5 4 5 5 6 6 5 3 3 4 5 5 6 5 6 6 6 5 7 9 10 10 9 4 6 7 5 2 3 3 2 2 4 2 1 2 1 1 2 1 0 1
12 10 10 7 5 5 5 4 4 5 5 4 3 3 6 6 4 3 0 3 4 1 4 4 4 4 4 4 4 5 4 4 6 6 5 5 4 2 2 2 3 3 3 3 4 4 5 6 6 6 5 5 5 7 7 7 7 6 6 5 5 4 4 5 4 3 4 4 5 5 5 3 4 3 3 2 3 3 2 1 1 1 1 1 3
13 12 13 12 11 9 6 5 6 5 5 4 3 2 5 2 3 1 1 2 6 7 3 3 3 2 4 4 5 3 3 2 4 5 6 6 5 3 2 3 3 3 3 3 3 4 5 5 5 5 5 5 7 9 9 8 8 8 7 5 5 4 4 2 3 5 5 5 5 5 4 4 5 4 3 3 4 4 4 4 5 4 2 3 0
12 12 13 12 12 11 11 11 10 9 9 8 5 2 2 1 2 2 2 3 2 2 5 5 1 5 4 8 7 4 5 3 4 5 5 7 4 3 3 3 3 3 3 2 4 4 5 5 6 6 5 5 8 10 11 11 8 8 7 6 5 5 5 3 7 11 12 13 12 11 10 9 9 9 9 7 4 3 3 4 2 1 3 0 1
9 11 11 10 9 9 10 10 10 10 10 10 9 8 6 2 1 2 2 2 2 4 3 1 2 6 6 6 7 6 6 4 7 7 7 9 7 5 5 6 4 4 2 1 3 4 5 9 8 7 7 6 10 11 11 10 8 8 8 8 6 6 3 2 4 5 9 11 11 11 10 9 8 8 8 7 6 3 3 1 2 5 3 2 1
10 9 9 8 9 8 7 9 9 9 9 8 7 8 8 7 4 3 2 1 2 1 1 2 2 2 4 4 4 5 5 3 6 8 9 8 7 4 6 6 6 4 5 4 2 3 3 6 10 10 9 10 14 13 12 9 8 8 8 8 7 6 5 4 5 5 4 5 5 6 7 7 6 5 5 8 8 6 3 4 5 3 4 2 1
7 7 7 8 8 9 7 8 8 8 7 6 7 6 5 6 8 7 6 4 3 2 1 3 4 4 3 4 5 5 5 4 6 10 11 11 11 6 6 7 6 6 5 6 6 3 3 4 4 8 12 13 14 14 12 11 9 7 7 8 8 7 5 4 3 6 5 6 5 6 6 5 6 6 5 6 6 5 5 4 3 5 5 4 3
7 7 7 8 8 9 8 8 9 8 6 5 5 7 7 7 7 7 7 7 6 6 5 4 4 4 3 4 4 4 3 4 4 10 8 9 9 8 6 7 6 7 7 5 6 7 7 6 4 6 9 12 13 14 12 10 9 8 7 8 7 7 8 6 4 7 7 6 6 6 6 6 6 6 6 6 6 6 6 4 4 3 5 5 3
8 9 9 9 9 9 10 9 9 8 8 8 9 9 7 7 7 6 7 6 7 7 6 4 3 5 4 3 3 3 2 4 3 5 7 6 7 9 6 6 6 8 5 6 5 6 8 7 7 8 10 10 11 11 11 10 10 6 7 7 10 14 8 6 6 7 7 7 7 6 6 6 6 6 6 6 5 4 4 4 4 4 3 2 2
8 8 9 9 9 10 9 11 10 8 9 9 9 9 8 8 8 8 8 8 7 8 8 8 7 6 5 3 1 2 2 1 5 3 5 6 6 8 11 6 9 5 9 8 8 8 5 5 4 7 9 9 10 11 12 12 9 7 11 12 13 12 9 6 7 7 7 6 7 7 6 6 6 6 6 6 3 3 4 3 3 3 2 1 0
9 9 9 8 8 8 8 8 8 8 9 9 9 9 9 8 7 8 7 7 7 7 8 8 8 8 8 9 8 5 1 0 1 3 2 3 3 5 6 10 9 7 6 8 8 6 6 6 7 11 10 11 12 13 13 11 9 12 12 12 13 10 7 6 6 7 7 7 7 6 6 4 6 5 4 4 4 3 4 2 2 2 2 2 2
8 8 8 9 9 8 8 8 8 8 8 9 9 9 9 9 9 8 8 8 8 7 7 7 7 7 8 8 8 8 7 1 2 5 8 6 5 5 6 6 5 8 4 3 4 6 7 9 11 12 11 11 13 12 10 11 14 12 12 12 10 7 7 7 7 7 7 6 6 6 5 4 5 4 4 3 2 1 1 1 1 1 1 1 2
7 6 6 6 6 6 8 9 9 9 9 8 8 7 7 8 7 5 6 7 7 7 7 7 7 7 7 8 8 8 6 4 0 3 5 6 6 8 10 11 7 2 3 4 2 7 8 9 9 6 6 10 9 7 7 8 11 13 12 10 6 7 7 7 6 7 7 6 7 7 6 5 3 4 2 2 3 2 1 0 1 2 3 3 5
7 7 7 6 4 4 5 5 5 6 6 6 5 5 6 6 7 7 7 6 6 5 5 5 6 7 6 6 7 8 9 5 4 3 4 4 5 5 5 7 8 9 7 5 5 4 6 6 7 11 8 6 7 5 8 7 7 6 5 6 7 7 7 7 7 8 7 6 5 6 5 4 3 3 3 3 3 1 1 1 1 2 1 2 1
6 6 6 6 6 6 6 7 7 5 5 4 5 5 5 4 5 5 5 6 6 7 6 6 4 5 7 7 6 7 8 7 6 5 3 1 1 4 4 5 7 6 6 5 5 5 6 6 6 5 6 7 7 6 4 4 4 5 4 5 6 6 6 8 7 6 5 5 6 5 4 4 5 3 2 2 3 2 1 0 1 2 2 2 3
4 4 4 5 6 5 6 6 6 6 7 7 6 3 4 4 3 3 2 0 2 4 6 6 6 3 4 5 6 7 6 8 8 4 7 9 10 8 7 7 7 7 11 13 6 7 7 7 6 7 6 6 5 1 2 4 4 4 4 5 5 6 6 6 6 6 6 7 7 7 6 4 3 2 2 2 2 1 1 2 3 1 3 1 1
4 3 3 4 4 5 5 5 4 5 5 5 6 8 7 6 4 3 5 7 9 6 5 6 5 3 4 6 5 5 7 9 11 10 6 10 12 13 12 12 11 10 11 16 14 10 9 9 7 7 4 2 0 1 3 4 5 5 5 4 5 6 6 5 6 6 5 6 6 6 6 4 4 3 3 3 1 1 2 3 1 1 1 2 3
3 4 4 4 4 4 4 5 5 5 4 5 5 4 7 10 7 4 4 8 9 10 9 7 6 6 4 5 7 10 13 15 17 14 8 11 12 13 15 15 14 16 15 4 3 7 7 8 8 8 8 7 7 6 5 4 5 5 5 5 6 7 6 6 5 5 5 5 4 5 5 5 6 4 4 4 2 1 2 2 2 2 1 0 3
4 3 3 3 3 4 3 3 4 5 5 4 3 4 5 6 10 12 9 8 12 11 7 8 7 9 8 5 5 8 11 11 13 13 9 11 11 10 9 11 13 16 15 7 5 6 6 8 8 7 8 9 9 8 8 8 7 7 6 6 5 5 6 6 5 6 6 6 6 5 5 5 5 4 2 1 2 1 1 2 2 2 2 2 3
4 3 3 3 3 4 4 5 5 5 5 5 5 5 5 5 6 10 15 11 7 7 9 8 8 10 11 11 7 4 8 12 14 13 11 11 12 11 11 14 15 16 13 6 5 6 6 6 9 9 10 11 10 9 8 8 7 5 6 7 7 5 4 4 5 6 6 6 6 6 4 3 2 4 3 2 1 0 1 1 0 0 0 2 4
2 2 2 2 3 4 5 4 4 5 5 4 5 5 5 5 6 6 8 12 16 12 10 13 13 12 11 10 11 12 12 11 12 11 11 10 10 9 9 6 10 14 14 11 9 9 8 8 7 9 9 7 6 6 6 5 5 5 5 6 6 6 5 5 5 5 6 5 6 4 4 3 4 4 3 3 2 2 2 0 0 1 3 2 4
3 4 4 3 4 4 4 3 4 4 5 5 5 5 5 5 4 5 6 7 8 9 11 12 13 14 12 9 9 11 11 11 12 11 10 8 6 10 11 8 5 4 5 4 6 7 8 9 8 6 5 6 6 6 7 7 6 5 5 5 5 5 5 5 5 6 6 6 5 4 5 5 3 4 6 4 3 2 0 0 1 1 1 4 4
4 4 3 3 3 3 3 4 5 5 5 5 5 5 5 5 6 5 5 5 5 7 9 9 9 10 14 8 7 9 10 10 11 11 10 2 8 12 7 6 6 6 8 6 6 6 5 5 5 6 6 6 6 6 7 8 7 7 7 8 7 7 6 6 6 6 4 6 6 5 5 5 6 6 4 4 3 2 1 1 1 2 1 3 4
3 3 3 2 2 3 3 3 3 4 4 4 4 5 5 5 4 5 5 5 6 7 6 8 9 10 9 4 7 9 9 9 8 9 11 9 7 3 2 2 6 5 7 6 4 4 6 4 3 1 2 5 6 6 5 6 7 7 6 7 8 8 7 7 7 7 7 6 5 6 5 6 5 5 6 4 1 1 0 0 1 2 4 4 4
1 1 1 1 1 2 2 2 2 3 3 3 4 4 5 6 6 5 6 6 7 7 8 7 6 6 7 9 9 5 7 6 8 8 9 8 6 3 1 1 1 5 7 5 4 5 5 6 6 6 5 2 1 0 1 3 5 6 7 6 7 7 8 8 7 6 6 6 6 6 6 5 5 4 4 4 2 0 1 1 1 2 4 5 3
1 0 1 1 1 1 1 1 2 3 4 4 4 4 4 5 5 5 5 6 6 6 6 6 6 6 6 7 7 7 5 6 5 4 4 3 2 2 3 2 3 4 2 2 1 2 3 4 4 5 5 4 3 5 5 3 5 6 7 8 7 7 8 7 6 6 6 6 5 4 5 5 4 4 3 4 1 1 0 1 1 2 3 5 5
2 1 1 3 3 2 2 1 2 5 4 5 5 5 5 6 7 7 6 5 6 6 6 6 7 6 7 7 7 7 6 5 3 5 4 4 3 3 3 2 1 3 1 3 1 1 4 4 4 5 5 5 4 3 2 4 5 7 8 8 8 7 7 6 6 6 6 5 6 4 5 4 3 3 2 1 1 0 1 1 2 2 3 4 5
1 0 3 3 4 3 2 2 3 4 4 4 4 5 5 5 5 5 5 5 5 6 6 6 6 6 6 9 13 9 4 3 3 3 3 3 4 3 2 2 2 4 2 1 1 1 2 5 5 6 6 6 5 5 5 5 4 5 6 6 7 7 6 5 5 6 6 5 5 4 4 4 3 5 4 1 2 2 1 0 1 3 4 4 5
1 3 3 2 2 2 2 2 3 3 4 4 5 5 4 4 4 5 5 5 5 5 6 6 6 6 8 14 12 10 5 4 3 5 5 5 4 5 4 3 2 2 2 2 3 2 2 3 3 5 6 7 7 6 7 8 6 7 8 7 7 7 6 5 5 4 5 5 4 5 4 4 3 4 3 3 3 2 2 2 2 3 4 5 4
1 3 2 2 3 2 1 1 2 3 3 4 5 4 4 4 4 5 5 5 5 5 5 6 6 6 7 10 11 10 6 5 4 5 4 4 4 4 4 4 4 4 4 3 2 4 6 6 5 3 6 6 5 5 7 8 8 7 7 7 7 7 6 5 5 5 4 5 4 4 4 4 4 3 2 2 2 3 2 2 2 3 4 4 4
0 2 1 1 1 2 2 2 3 3 4 3 3 3 4 4 4 5 5 5 5 5 5 5 5 6 6 7 8 7 7 6 6 6 7 6 6 6 5 4 4 4 4 4 5 5 7 7 6 5 7 6 6 7 7 6 5 7 8 8 7 6 5 5 5 5 4 5 5 4 4 3 2 2 2 2 2 3 3 2 2 3 4 4 5
1 0 1 1 0 1 1 1 2 4 4 3 2 2 3 4 4 4 4 5 5 5 5 5 6 6 6 7 7 6 6 6 6 7 7 6 6 5 4 4 4 5 6 7 7 7 6 6 6 7 8 7 7 8 8 7 7 6 5 6 7 6 5 4 3 2 2 5 5 4 3 3 2 2 2 1 1 2 1 1 2 3 4 4 4
2 1 1 1 1 2 3 3 3 4 4 3 2 3 3 4 3 4 4 4 5 5 5 5 5 6 6 6 6 6 7 7 7 7 6 7 6 5 5 5 6 7 8 8 8 8 7 6 7 8 9 8 8 7 7 7 7 7 7 6 6 6 4 3 2 2 3 4 3 2 2 2 1 1 2 1 1 1 0 2 2 3 3 5 5
1 2 2 2 2 2 2 3 4 3 4 3 2 2 2 3 3 3 4 5 4 5 5 5 5 6 6 6 6 6 6 6 6 7 7 7 7 6 6 6 7 8 9 8 8 7 8 8 8 9 8 8 7 8 7 7 6 6 6 6 5 5 4 3 3 3 3 2 2 2 2 1 1 1 2 2 1 1 0 2 2 3 4 3 4
3 4 4 3 2 3 3 4 4 4 4 3 2 2 1 2 2 2 3 3 4 4 4 4 5 5 5 6 6 6 6 6 6 6 6 6 7 6 6 7 8 8 8 8 8 8 8 8 8 8 8 8 8 7 6 6 6 6 5 5 5 4 5 5 3 2 1 1 1 1 1 1 1 2 1 1 1 1 1 1 2 2 4 4 4
1 3 4 3 4 4 4 5 5 5 4 4 3 3 1 0 1 1 3 3 3 3 3 4 4 4 5 5 5 5 5 5 6 6 6 6 6 6 6 7 7 7 8 8 8 8 8 8 8 8 8 7 6 6 6 6 6 5 5 5 6 8 6 4 2 1 1 1 1 1 2 2 2 2 1 1 1 1 1 2 2 3 4 4 4
2 2 2 1 1 0 0 3 5 5 5 4 4 4 3 1 2 0 3 3 3 3 3 3 3 3 4 4 5 5 4 5 5 5 5 5 5 5 6 7 8 7 6 6 7 7 7 7 8 8 7 7 6 5 4 5 6 5 4 5 7 6 5 4 3 3 1 0 0 2 2 2 2 1 0 1 2 2 2 2 2 4 3 5 5
2 2 2 1 1 1 1 4 5 5 5 5 4 4 4 3 2 1 2 3 3 2 2 3 3 3 4 4 4 4 4 4 4 4 4 5 5 5 6 6 7 7 7 7 7 6 6 6 6 6 6 6 6 5 5 5 5 5 6 6 5 4 5 4 2 4 1 2 1 1 2 2 1 0 1 1 1 2 3 3 3 3 4 3 5
Wind_Direction
140 136 131 127 123 115 114 119 124 129 128 134 136 147 152 150 144 137 114 122 135 132 130 127 127 127 127 140 150 161 143 129 55 87 88 89 45 56 51 64 85 43 63 47 36 69 78 84 66 51 91 107 114 109 105 122 145 170 176 153 144 148 138 115 122 140 134 210 164 169 138 133 170 180 170 194 195 157 133 158 167 183 247 249 249
130 138 129 121 122 125 124 122 129 135 138 147 150 155 157 148 140 130 137 154 148 146 139 129 130 138 148 159 162 149 129 111 82 108 136 97 44 34 48 64 77 52 55 64 39 55 82 88 63 61 74 96 102 103 129 130 148 149 170 170 168 164 164 107 135 135 187 329 74 47 119 161 175 193 179 184 218 173 179 167 165 192 227 264 266
155 155 148 142 143 137 134 136 138 144 145 150 147 152 156 150 150 140 142 152 164 151 150 139 141 153 156 161 144 150 172 155 135 143 131 107 99 38 69 100 116 115 98 87 63 67 72 70 54 45 60 75 63 70 89 109 124 143 163 170 170 168 168 139 125 122 154 199 154 140 185 185 193 186 192 182 170 164 200 200 172 197 231 228 293
161 146 119 103 110 110 118 133 140 145 148 149 151 156 158 157 146 136 151 165 164 173 160 153 142 157 167 153 165 180 179 152 143 147 153 144 143 129 77 69 86 127 131 116 87 77 96 84 54 62 75 83 61 74 61 76 100 117 114 121 150 154 154 121 114 135 157 139 241 171 218 172 253 145 140 100 132 165 194 192 151 180 211 186 260
144 121 117 118 124 125 126 124 127 137 136 139 146 144 144 140 135 146 155 170 181 166 179 149 150 165 162 170 180 183 181 158 154 150 160 160 154 137 127 147 149 109 92 84 84 94 87 111 130 84 76 83 49 64 72 81 77 99 111 119 123 128 109 124 136 120 134 145 156 191 200 204 225 235 161 142 70 46 22 145 213 190 136 16 40
113 111 120 124 128 126 126 117 111 104 121 121 107 122 164 157 161 161 185 174 189 188 173 169 164 177 176 181 183 190 183 161 159 165 165 147 133 132 136 149 144 110 95 85 92 95 106 111 125 118 100 102 83 40 55 82 76 80 90 84 96 93 95 73 91 103 115 136 139 122 45 153 109 41 223 154 133 93 58 50 58 32 87 74 42
104 123 130 129 124 121 123 123 119 109 111 127 153 184 182 170 170 176 186 177 186 194 172 164 178 172 187 167 178 186 168 155 160 160 165 169 154 144 130 123 111 110 94 90 88 99 105 115 139 143 132 136 130 113 86 59 77 77 85 102 93 96 87 80 98 111 124 114 51 76 97 26 123 116 24 76 105 122 128 87 49 12 51 78 71
126 137 143 145 146 146 141 149 137 138 171 189 190 178 178 177 180 181 173 181 181 188 186 183 178 177 181 179 184 162 154 163 168 166 171 171 159 153 156 154 148 133 127 63 88 125 118 114 129 168 158 154 145 154 136 106 82 76 45 89 95 96 93 95 89 101 108 87 85 102 25 78 2 356 27 58 76 40 35 117 118 58 29 20 60
167 145 115 154 155 153 149 157 160 163 175 181 190 180 179 185 187 179 180 186 189 183 164 159 162 184 189 185 176 167 173 178 178 175 170 177 177 174 176 175 171 165 180 203 210 202 186 128 122 149 169 153 158 159 167 156 139 123 138 115 106 106 102 92 112 105 91 104 89 77 75 50 9 62 52 44 104 142 312 81 93 19 4 77 27
162 161 114 101 118 135 146 154 166 165 168 178 183 180 174 174 183 194 197 193 180 158 150 158 171 179 180 193 191 184 188 189 189 183 180 174 180 180 172 184 178 172 181 210 244 245 215 211 201 141 131 134 143 147 142 135 140 150 162 145 123 103 112 115 105 115 112 109 124 122 97 68 15 47 97 54 329 51 69 58 90 274 70 26 318
143 152 135 139 137 136 139 144 146 155 163 161 169 171 175 174 181 196 197 192 177 165 154 163 181 183 182 179 190 203 200 201 197 188 191 181 172 175 182 192 188 182 189 194 207 211 225 199 121 127 121 108 98 109 113 113 105 100 100 107 127 143 132 107 123 122 120 111 115 89 109 111 54 48 108 90 27 83 112 105 102 59 82 92 228
82 89 105 111 110 104 105 152 146 122 126 139 156 174 168 170 179 190 185 187 192 160 171 185 183 183 183 187 190 199 206 205 195 200 199 192 190 182 183 185 191 197 195 202 202 189 183 160 150 137 126 136 134 113 95 90 95 92 87 77 68 55 73 150 149 118 128 121 101 124 121 136 141 124 115 89 105 69 59 97 110 125 101 83 194
65 59 50 57 55 67 88 106 111 135 141 144 134 142 157 166 176 177 197 195 145 167 190 182 191 182 182 189 204 210 218 196 191 201 206 211 222 212 198 193 184 197 200 203 193 182 165 154 156 141 143 139 118 111 113 93 79 80 77 74 63 63 62 65 83 144 148 122 128 158 164 153 117 179 202 164 143 108 91 66 78 91 134 132 229
45 43 49 57 58 48 56 60 35 17 18 22 27 44 73 157 195 182 153 120 145 162 185 198 193 187 193 195 200 205 212 200 196 190 176 205 236 264 253 218 205 196 207 202 190 179 171 166 164 162 157 130 134 129 118 109 103 82 67 55 54 43 49 56 66 76 99 137 142 146 205 143 144 180 178 134 98 127 103 54 115 118 136 75 67
49 44 38 35 57 77 62 60 74 85 84 81 68 45 44 22 25 355 170 137 99 154 195 208 217 213 210 218 207 204 222 180 189 164 167 181 190 211 287 256 204 205 204 197 186 180 176 176 173 165 161 156 160 150 132 129 112 98 83 69 62 53 50 39 29 57 93 92 116 119 148 172 141 139 127 106 85 139 130 122 177 156 132 48 78
49 43 41 35 32 26 33 51 59 69 91 98 88 76 97 193 253 186 96 103 164 204 264 254 206 100 45 30 300 262 253 191 179 176 167 163 144 174 219 231 203 203 212 193 191 187 173 167 162 161 163 163 164 158 143 132 118 111 104 102 89 79 64 61 53 70 79 96 98 106 107 88 79 89 88 103 101 96 81 70 59 38 57 44 63
44 46 46 37 33 31 35 43 44 43 47 49 42 66 103 143 303 307 239 177 171 149 225 227 86 102 218 218 225 231 242 177 170 172 170 159 153 193 201 189 174 185 210 188 188 179 169 170 164 159 157 168 169 160 151 132 123 122 120 109 101 94 70 28 49 59 67 72 76 78 80 76 76 78 80 80 103 124 82 62 35 80 73 73 315
39 44 46 41 37 35 38 42 44 42 44 39 34 29 17 354 266 229 208 231 179 213 259 272 157 185 202 208 208 208 234 184 177 183 183 183 192 188 182 171 174 167 153 129 169 179 183 174 161 160 164 176 171 168 164 138 129 135 131 125 121 115 110 42 58 56 69 75 71 67 58 60 59 61 63 62 60 73 103 104 167 105 99 128 201
31 36 40 38 41 36 38 44 44 43 45 38 35 32 24 16 348 341 324 243 218 194 189 232 244 223 227 235 226 220 234 207 185 197 193 191 196 199 171 163 163 175 155 142 124 156 179 179 178 171 170 174 171 174 175 157 143 151 148 133 136 146 181 156 134 107 82 67 42 61 49 49 58 66 62 61 54 53 77 122 131 104 139 188 178
24 28 28 30 34 33 30 40 42 41 36 37 37 38 24 30 22 16 8 348 319 305 251 210 222 229 213 225 226 223 222 219 206 208 209 202 206 188 165 155 174 175 169 162 154 157 179 188 201 191 172 171 175 177 183 163 151 151 142 144 147 171 181 143 121 109 95 99 86 78 80 65 61 60 58 54 48 52 61 78 110 119 132 162 189
26 26 30 33 33 31 28 32 35 35 35 32 33 39 32 28 22 24 18 11 15 357 326 309 286 271 229 214 221 226 204 202 199 209 219 212 212 204 170 187 174 166 169 175 172 170 181 198 205 202 188 177 177 179 181 164 150 151 159 159 177 158 138 128 123 112 107 105 97 87 81 72 65 63 65 61 61 58 60 58 70 102 129 136 143
25 29 32 32 32 30 27 24 28 30 26 26 31 35 27 27 28 21 16 16 19 19 12 346 305 292 304 287 256 254 223 184 172 197 229 246 248 238 194 196 181 157 165 176 181 185 183 181 194 196 189 182 171 173 167 154 148 141 164 157 138 132 140 130 118 106 105 105 103 92 87 84 77 72 69 67 67 71 73 74 76 82 90 140 151
37 39 37 36 34 31 27 26 25 23 25 25 31 31 23 25 25 22 20 18 18 15 9 3 0 344 323 289 259 264 259 262 177 174 195 219 240 281 294 290 182 183 167 180 195 194 188 185 181 169 175 174 161 155 150 147 142 151 152 141 138 130 119 114 110 105 106 109 105 102 92 97 97 93 91 92 81 78 77 75 64 66 66 63 127
40 40 36 35 35 34 32 31 31 29 25 24 31 29 25 23 26 23 18 26 19 15 9 3 4 3 349 329 326 323 35 100 118 164 142 119 24 329 322 323 286 213 192 191 191 176 168 182 183 170 172 169 155 149 147 145 143 144 139 136 128 122 110 107 104 116 118 111 106 111 113 115 108 112 125 137 127 116 94 72 41 35 39 354 342
47 45 37 28 25 20 23 28 28 28 27 26 28 22 24 20 25 12 15 23 20 15 10 6 4 348 345 339 326 324 320 345 97 91 95 106 97 69 31 5 331 294 270 259 161 184 183 174 167 162 167 158 142 136 130 133 137 137 134 131 125 117 122 122 126 122 116 125 128 128 138 159 162 157 160 151 147 102 67 6 6 8 348 332 294
50 47 43 41 32 25 28 17 19 20 21 26 27 21 17 11 17 11 26 17 10 11 4 2 357 348 335 332 327 324 318 310 321 120 131 116 89 61 54 42 31 75 23 356 109 129 133 130 124 124 140 144 138 139 141 143 140 136 133 129 121 125 124 119 117 116 128 137 139 146 162 157 154 151 138 114 115 138 122 122 15 348 25 34 7
38 33 31 32 36 40 49 30 16 20 21 18 22 22 17 15 7 3 4 9 12 9 3 358 349 338 328 324 321 318 317 298 263 215 197 148 133 98 68 66 62 61 44 30 54 74 99 115 141 136 119 50 36 85 114 111 103 100 106 109 120 121 125 134 140 133 141 142 145 149 145 151 128 115 139 129 132 226 211 170 85 316 19 37 40
38 25 16 13 15 16 19 16 24 22 22 26 20 8 13 18 11 359 347 353 353 343 341 333 324 303 320 318 316 310 302 301 281 246 252 186 149 145 141 128 122 120 98 78 77 71 84 69 56 33 63 70 65 35 24 61 96 113 114 113 106 102 98 93 81 103 118 131 128 121 122 133 155 169 138 156 185 226 227 148 113 306 29 40 16
34 23 9 11 11 5 11 12 11 11 1 1 1 1 1 345 350 316 284 215 285 288 296 288 282 280 285 292 304 307 300 291 277 245 224 194 169 156 141 144 146 140 151 138 106 96 86 77 66 59 45 80 89 129 215 122 97 96 103 101 115 118 117 114 123 135 142 130 142 148 158 150 149 143 145 158 213 233 348 29 44 34 335 55 305
41 17 7 17 7 9 11 9 5 5 4 0 353 341 340 341 332 332 313 326 325 303 244 243 261 306 290 269 238 264 289 285 296 307 226 198 182 159 150 150 149 139 158 163 152 155 152 141 138 125 122 107 271 243 152 143 130 117 116 131 129 111 111 120 137 146 145 143 145 140 159 159 168 171 177 177 248 358 56 76 342 20 29 353 336
39 9 13 8 4 10 8 1 353 352 360 0 357 357 339 334 335 331 316 323 330 333 337 301 285 290 257 284 293 273 268 278 286 284 236 199 184 168 166 165 154 154 160 174 78 132 146 154 163 167 161 151 160 181 188 151 162 153 168 156 139 135 140 139 151 135 133 131 144 152 153 159 177 182 181 199 178 351 15 37 81 73 113 292 319
50 13 1 350 2 9 3 359 354 360 348 1 2 0 354 345 330 327 341 351 335 334 342 342 328 330 325 298 293 312 323 328 319 302 246 204 210 207 172 156 156 152 168 184 133 178 179 165 160 166 159 160 186 190 182 183 179 169 156 133 134 143 146 154 160 146 143 140 145 150 165 178 172 179 157 106 113 82 45 18 26 44 358 343 299
52 20 5 1 8 6 7 5 356 357 354 352 354 359 3 2 346 332 327 334 340 323 333 340 337 334 331 332 333 305 299 309 313 304 283 238 220 213 183 172 166 163 153 147 170 182 204 191 178 181 184 182 176 185 188 182 166 153 143 139 146 164 152 128 133 136 146 157 150 163 166 149 124 116 121 129 114 72 59 72 349 45 12 336 308
69 55 12 10 19 9 3 357 360 358 353 356 355 0 358 357 349 338 333 334 339 341 346 341 338 339 334 334 333 337 344 347 338 321 296 270 233 199 155 155 165 169 167 179 184 193 196 202 205 195 198 192 178 160 146 146 150 150 137 137 130 127 123 135 137 130 128 132 134 147 139 150 154 121 92 70 74 99 99 209 45 8 331 308 294
20 19 19 27 25 5 351 352 358 354 5 2 1 359 352 351 346 347 341 335 325 323 321 325 327 330 325 324 328 336 343 354 359 348 322 271 194 138 118 114 129 196 241 253 211 202 195 205 205 188 157 150 146 151 152 154 142 136 143 135 121 123 129 145 138 128 128 127 119 132 144 135 126 123 131 124 106 91 112 348 318 265 287 306 301
10 11 7 13 8 354 350 5 6 13 6 359 1 0 0 358 353 341 331 317 317 316 318 317 313 310 316 318 332 342 345 351 8 19 10 351 151 139 143 175 176 197 203 210 197 200 186 191 170 176 168 168 165 161 158 157 167 164 157 143 144 148 145 139 131 125 134 132 137 133 117 114 130 123 112 100 124 156 186 206 283 310 288 272 280
2 3 12 359 2 359 5 8 14 6 8 12 7 12 6 357 344 332 323 324 326 324 312 315 326 336 343 347 343 336 336 336 350 30 38 41 47 43 357 227 205 184 197 199 176 165 166 170 142 146 195 180 177 174 170 168 158 157 157 149 144 141 152 145 143 143 141 136 143 145 136 145 144 142 134 134 157 156 188 249 300 294 276 272 282
290 303 310 317 6 24 23 4 349 11 26 20 25 19 10 10 355 338 336 330 333 328 321 326 329 329 333 326 326 325 318 336 1 17 18 29 35 24 53 84 290 214 208 191 171 167 171 171 175 179 180 174 94 66 177 150 149 148 143 134 129 134 136 135 136 133 133 136 144 144 134 140 146 143 127 132 157 178 307 1 26 326 315 307 306
61 72 110 86 113 143 136 34 9 33 24 23 21 12 9 359 357 354 339 329 331 329 326 324 325 328 327 321 323 323 349 15 9 357 354 5 26 31 10 34 56 10 333 239 250 145 122 127 124 114 122 118 136 160 154 145 131 130 134 129 127 130 128 130 134 137 132 136 133 134 133 147 149 144 142 128 153 169 55 3 341 284 294 307 304
337 14 61 130 152 149 110 114 71 49 36 23 10 7 13 11 8 352 332 331 331 333 330 332 329 334 325 331 329 329 342 339 346 333 339 339 344 345 39 52 145 191 32 347 349 89 108 120 116 110 105 105 111 101 109 144 145 138 135 136 136 130 129 132 136 135 136 138 139 147 140 149 149 130 114 140 161 117 89 332 305 308 301 290 288
309 179 162 180 172 117 83 64 57 56 51 31 13 19 17 10 350 318 326 329 332 335 335 332 330 323 326 330 333 330 291 325 342 1 349 329 313 317 353 344 12 2 331 155 322 285 139 138 136 132 132 119 117 121 105 89 103 99 88 95 102 110 111 112 121 126 131 134 140 136 133 120 126 129 123 142 135 104 92 83 322 318 296 283 278
152 126 156 181 120 118 107 64 72 75 65 37 33 23 15 359 325 322 331 331 336 337 334 340 334 330 330 343 353 356 11 22 19 23 17 359 350 347 337 331 351 27 294 241 148 109 60 55 82 113 122 126 130 126 124 122 123 119 123 115 111 110 109 114 119 127 130 129 125 124 116 110 102 94 114 112 90 85 61 37 5 302 287 287 293
197 147 165 168 134 149 158 153 106 84 58 46 36 12 330 328 335 338 336 339 346 345 347 343 342 344 350 355 1 10 18 14 44 34 19 358 3 12 354 358 9 7 23 31 65 99 100 89 59 55 93 101 123 139 128 129 129 120 112 112 112 114 119 126 124 123 121 118 115 103 99 92 94 108 110 84 82 78 69 39 335 306 294 301 313
314 121 149 215 114 110 101 112 114 96 90 76 42 357 336 333 344 344 349 349 352 356 354 354 352 356 359 0 10 18 13 8 30 29 23 14 23 19 360 359 32 44 54 57 59 72 90 93 96 75 74 71 68 70 71 70 90 107 115 114 114 118 125 130 137 152 148 133 119 100 87 88 75 87 90 82 79 64 42 16 308 298 305 313 309
72 136 187 254 61 134 159 156 127 106 90 61 30 5 347 345 345 351 2 357 358 356 2 3 3 9 10 13 14 20 18 20 27 32 26 20 30 19 11 21 39 59 56 53 51 56 66 82 91 88 79 69 65 67 65 63 60 63 71 102 120 120 125 135 149 152 132 105 102 99 100 100 106 110 94 69 84 86 60 304 294 309 313 312 319
188 176 190 186 208 157 168 166 137 114 105 86 61 40 20 341 340 2 6 6 5 4 4 8 11 17 18 18 16 21 21 25 32 29 30 29 30 24 27 44 51 59 61 58 55 57 61 64 72 75 73 69 62 58 58 55 59 62 59 57 72 87 87 79 78 70 68 83 105 113 126 117 123 114 78 52 40 82 112 276 267 264 280 300 305
213 215 215 197 193 190 188 153 130 124 123 119 94 77 16 332 344 358 13 13 15 14 15 12 15 18 17 22 22 25 24 29 30 32 32 33 32 26 26 43 57 60 59 58 58 59 62 62 63 66 70 66 55 53 53 49 48 49 56 60 69 78 85 85 75 80 94 106 126 131 122 132 123 93 50 34 22 37 322 268 275 294 294 295 302
286 269 252 227 192 192 175 151 142 135 126 132 135 108 30 333 340 359 15 9 20 20 16 23 23 21 24 26 24 26 27 30 35 38 39 41 39 35 38 48 55 60 63 61 55 55 56 58 60 64 66 65 65 66 61 62 64 58 60 61 58 57 61 61 54 61 32 42 85 96 122 121 111 90 73 35 348 324 306 299 300 292 308 311 304
283 246 225 210 201 201 184 170 158 154 157 158 157 159 199 320 321 357 36 23 15 17 20 23 21 22 31 28 24 26 26 32 38 36 36 35 36 38 44 51 54 56 59 57 50 49 53 51 51 56 60 59 55 56 60 66 70 69 70 71 73 68 62 62 87 80 110 120 112 113 135 131 108 87 62 332 289 290 270 285 300 310 309 306 304
12 341 313 266 279 308 132 137 152 163 158 167 158 155 191 229 250 233 79 46 31 28 25 28 31 24 24 29 27 20 26 39 45 48 48 44 44 43 48 51 53 48 47 50 52 54 59 58 54 56 56 58 59 52 51 65 71 63 53 53 45 31 24 16 7 10 6 287 209 164 122 94 88 77 3 284 282 289 305 299 291 295 300 303 304
17 10 351 4 321 284 143 150 161 167 164 165 156 161 179 214 237 264 97 84 83 60 34 38 31 32 35 29 32 30 27 30 33 39 44 53 57 58 58 60 56 53 54 48 45 45 44 47 51 55 59 62 62 59 55 59 58 58 57 51 28 14 6 6 358 328 301 195 181 141 117 109 89 308 285 276 274 274 277 286 285 277 277 284 291